{"data":{"norad_id":61554,"epoch":"2026-09-22T21:07:07.160736Z","epoch_age_seconds":91841,"freshness":"FRESH","line1":"1 61554U 24185C   26265.87994399  .00000379  00000+0  16198-3 0  9996","line2":"2 61554  88.9781  43.7093 0011782 148.3557 211.8345 14.22935410110379","mean_motion":14.2293541,"eccentricity":0.0011782,"inclination_deg":88.9781,"raan_deg":43.7093,"arg_perigee_deg":148.3557,"mean_anomaly_deg":211.8345,"bstar":0.00016198,"rev_number":11037,"period_min":101.19925260698,"perigee_km":806.96706444939,"apogee_km":823.91801527712,"semimajor_km":7193.5795398633,"source":"CELESTRAK","updated_at":"2026-09-23T09:00:20.903249Z"}}